{"data":{"norad_id":56110,"intl_designator":"2023-046T","name":"STARLINK-6082","alt_names":[],"object_type":"PAYLOAD","status":"ACTIVE","operator":null,"country":"US","launch_date":"2023-03-29","launch_site_code":"AFETR","launch_vehicle":null,"mission":null,"orbit_class":"UNKNOWN","rcs_meters":null,"size_class":null,"mass_kg":null,"dimensions":null,"purposes":["comms"],"wikipedia_slug":null,"has_3d_model":false,"image_url":null,"decayed_at":null,"tle_current":{"epoch":"2026-05-25T03:42:22.508352Z","epoch_age_seconds":64923,"freshness":"FRESH","line1":"1 56110U 23046T   26145.15442718  .00001908  00000+0  78864-4 0  9992","line2":"2 56110  43.0038  89.9024 0000815 266.5828  93.4930 15.27566250173723","mean_motion":15.2756625,"eccentricity":8.15e-5,"inclination_deg":43.0038,"raan_deg":89.9024,"arg_perigee_deg":266.5828,"mean_anomaly_deg":93.493,"bstar":7.8864e-5,"rev_number":17372,"period_min":94.267597231871,"perigee_km":482.53107877262,"apogee_km":483.64945881743,"semimajor_km":6861.227268795,"source":"CELESTRAK","updated_at":"2026-05-25T13:38:17.956275Z"}}}